This is the latest recevied weather packets stored in our database for station/object K1RTA. If no packets are shown the sender has not sent any weather packets the latest 10 day(s).
| Time | Temp. | Humidity | Pressure | Rain* | Wind** | Luminosity | Snow |
|---|---|---|---|---|---|---|---|
| 1788116735 | 30° C | 60% | 1018.5 hPa | 0 mm | - | - | - |
| 1788116435 | 30° C | 60% | 1018.6 hPa | 0 mm | - | - | - |
| 1788116134 | 30° C | 62% | 1018.7 hPa | 0 mm | - | - | - |
| 1788115834 | 29.44° C | 61% | 1018.7 hPa | 0 mm | - | - | - |
| 1788115534 | 29.44° C | 63% | 1018.9 hPa | 0 mm | - | - | - |
| 1788115234 | 28.89° C | 62% | 1018.9 hPa | 0 mm | - | - | - |
| 1788114934 | 28.33° C | 64% | 1019 hPa | 0 mm | - | - | - |
| 1788114634 | 27.78° C | 65% | 1019.1 hPa | 0 mm | - | - | - |
| 1788114334 | 27.78° C | 64% | 1019.2 hPa | 0 mm | - | - | - |
| 1788114034 | 27.78° C | 64% | 1019.2 hPa | 0 mm | - | - | - |
| 1788113733 | 27.78° C | 65% | 1019.2 hPa | 0 mm | - | - | - |
| 1788113433 | 27.78° C | 64% | 1019.2 hPa | 0 mm | - | - | - |
| 1788113135 | 27.22° C | 67% | 1019.2 hPa | 0 mm | - | - | - |
| 1788112835 | 26.67° C | 66% | 1019.3 hPa | 0 mm | - | - | - |
| 1788112535 | 26.67° C | 66% | 1019.3 hPa | 0 mm | - | - | - |
| 1788112234 | 27.22° C | 65% | 1019.3 hPa | 0 mm | - | - | - |
| 1788111934 | 27.22° C | 65% | 1019.3 hPa | 0 mm | - | - | - |
| 1788111634 | 27.78° C | 64% | 1019.3 hPa | 0 mm | - | - | - |
| 1788111334 | 27.78° C | 63% | 1019.4 hPa | 0 mm | - | - | - |
| 1788111034 | 28.33° C | 64% | 1019.3 hPa | 0 mm | - | - | - |
| 1788110734 | 27.78° C | 64% | 1019.5 hPa | 0 mm | - | - | - |
| 1788110433 | 27.78° C | 64% | 1019.5 hPa | 0 mm | - | - | - |
| 1788110133 | 28.33° C | 63% | 1019.4 hPa | 0 mm | - | - | - |
| 1788109833 | 28.33° C | 61% | 1019.4 hPa | 0 mm | - | - | - |
| 1788109535 | 28.89° C | 61% | 1019.4 hPa | 0 mm | - | - | - |
* Rain latest hour (hover to see other rain measurements)
** Current wind speed in m/s (hover to see current wind gust speed)